Lebanon Springfield-George Hoerter Field (6I2)

 

Airport Diagram
No Airport Diagram Available
Current Weather/Forecast (VFR Conditions)
METAR K6I2 182310Z AUTO 00000KT 10SM BKN110 16/02 A2989 RMK AO2
TAF

Airport Information

All Charts
General
Chart Name View
TAKEOFF MINIMUMS
ALTERNATE MINIMUMS
TAKEOFF MINIMUMS
ALTERNATE MINIMUMS

Approaches
Chart Name Download
RNAV (GPS) RWY 11
RNAV (GPS) RWY 29
VOR/DME RWY 11
RNAV (GPS) RWY 11
RNAV (GPS) RWY 29
VOR/DME RWY 11


Airport Statistics
Departures Arrivals Local
All Collected Stats since June 2016: 4 4 0
2021 Stats: 0 0 0
April Stats: 0 0 0

Inbound Traffic (Arrivals) - 0

No inbound traffic.


Outbound Traffic (Departures) - 0

No outbound traffic.


Local Traffic (Pattern) - 0

No local traffic.